Weather in Solnechny

Russia / Khabarovsk Krai     50°43′23″N   136°38′31″E
temp.,
°C
wind,
m/s
gust,
m/s
humid.,
%
clouds,
%
prec.,
mm/h
press.,
hPa
HPBL,
m
27 february, sat
sat2701:00−20s229527 0.0 103137
04:00−21sse239727 0.0 103279
07:00−23s359947 0.0 1032144
10:00−21sse359770 0.1 1031207
13:00−17sse479491 0.0 1028305
16:00−14sse479096 0.0 1025302
19:00−15s4794100 0.1 1024251
22:00−14s51184100 0.3 1021380
28 february, sun
sun2801:00−13s51179100 0.0 1017441
04:00−14s3588100 0.0 1014176
07:00−15ssw1190100 0.0 101324
10:00−12e1186100 0.0 1012128
13:00−8e218090 0.0 1012395
16:00−7se118494 0.1 1012430
19:00−11nw5137276 0.1 1015521
22:00−14nw5157052 0.1 1018504
1 march, mon
mon101:00−19wnw258210 0.0 102099
04:00−21sw12825 0.0 102320
07:00−22ssw119670 0.0 102520
10:00−18se128449 0.1 1025301
13:00−14nne146325 0.0 10241211
16:00−14nw366027 0.1 10241199
19:00−20wnw2107029 0.0 1026390
22:00−23w357324 0.0 1028123
2 march, tue
tue201:00−22w118148 0.1 102820
04:00−25sw118843 0.1 102920
07:00−26sw11795 0.0 103119
10:00−20ssw16692 0.0 1030627
13:00−16nnw05570 0.0 10291377
16:00−16sse146733 0.0 10281084
19:00−22s229589 0.0 102836
22:00−22ssw228847 0.0 103020
3 march, wed
wed301:00−24ssw22890 0.0 102921
04:00−25s22902 0.0 102827
07:00−27sse229431 0.0 102751
10:00−24sse469865 0.0 1025236
13:00−16s6108277 0.0 1021531
16:00−12s7116580 0.0 10171005
19:00−17s598356 0.0 1015234
22:00−18ssw228971 0.0 101550